Theta_e
310 310 310 311 309 309 310 309 310 310 306 307 307 307 308 309 309 310 311 314 312 315 314 316 316 316 316 316 318 317 322 327 325 323 324 319 321 319 319 320 318 318 318 320 321
310 310 310 311 311 310 310 310 310 310 308 307 307 308 311 316 316 315 315 314 317 315 316 317 317 317 317 317 317 318 320 321 320 321 320 319 319 319 320 320 320 319 318 318 318
309 309 310 310 310 310 311 310 310 310 308 307 308 312 317 319 317 313 311 313 315 316 317 318 318 318 318 317 316 316 319 317 319 318 318 319 319 318 320 321 320 320 319 318 318
310 310 310 310 310 310 311 309 309 308 307 308 313 317 320 320 317 313 315 316 315 316 317 317 317 317 317 319 314 318 316 316 317 317 318 319 318 319 318 320 318 317 317 318 318
308 310 310 310 310 311 310 308 307 307 309 314 316 318 318 314 314 316 316 315 315 316 317 316 316 316 318 316 315 317 316 316 315 316 316 316 318 319 318 317 317 317 317 318 318
305 310 310 311 310 310 310 308 307 308 314 316 317 317 315 316 316 316 315 316 315 315 315 315 315 315 315 315 317 315 316 316 315 315 315 316 317 316 316 316 316 317 318 318 319
305 310 311 311 311 311 309 308 310 315 317 317 317 316 315 316 316 315 315 315 316 315 315 315 315 315 314 316 314 315 318 317 315 316 316 315 317 317 315 317 318 319 319 319 318
305 311 311 312 313 312 312 314 316 317 316 317 318 315 315 316 315 315 314 315 316 316 316 315 315 315 314 313 314 317 316 319 316 318 316 315 319 317 315 316 318 318 318 319 319
306 311 312 313 314 315 315 315 315 314 315 316 316 316 315 315 315 314 315 315 315 316 315 315 315 315 315 317 317 316 318 317 316 316 318 319 320 318 317 317 318 319 318 317 318
306 310 312 314 314 314 315 316 317 316 316 317 316 315 315 315 315 315 315 315 315 316 315 315 314 317 316 318 317 318 317 316 317 318 318 318 319 318 317 319 320 319 319 318 317
306 309 312 313 316 316 316 318 317 317 316 316 315 315 313 314 315 315 315 314 315 315 317 313 317 318 317 316 315 315 316 317 317 316 318 318 317 318 318 320 320 320 318 318 319
306 309 311 313 316 316 316 316 316 316 317 316 316 315 314 314 314 314 315 315 316 318 315 317 318 316 314 315 315 317 318 318 317 316 317 317 318 317 320 320 319 320 322 322 323
308 311 312 312 315 316 315 316 317 317 316 317 317 314 314 314 314 315 316 315 316 318 317 318 318 315 317 317 318 318 318 317 317 317 315 317 316 319 320 320 320 320 320 321 323
310 314 316 316 316 315 315 314 316 317 319 317 314 314 314 314 316 315 316 316 318 319 317 317 317 318 319 318 317 319 316 317 317 319 319 316 314 318 321 322 321 320 320 321 322
310 315 316 316 314 315 315 315 316 317 318 316 314 314 314 315 315 315 316 316 318 319 317 317 318 319 319 318 316 318 316 317 317 318 317 316 316 317 317 322 322 321 319 319 321
313 315 316 316 316 314 313 315 317 321 317 315 314 315 315 314 314 315 316 317 317 317 316 316 315 316 318 316 315 315 317 314 315 317 317 315 318 317 320 322 322 320 319 318 318
315 314 314 315 315 315 316 318 319 319 315 316 316 316 315 316 316 316 318 318 319 318 318 316 316 316 315 317 316 318 318 315 314 316 316 316 319 318 319 318 322 322 320 318 317
317 314 313 316 318 317 318 319 321 317 315 315 316 317 318 317 317 316 318 318 317 316 316 317 317 316 315 316 317 317 318 315 313 312 314 317 318 318 318 318 318 320 320 318 317
317 314 315 315 317 320 318 319 318 316 315 316 316 317 318 317 318 317 317 317 315 315 318 317 316 314 314 314 315 316 317 315 318 317 319 317 318 317 320 321 321 320 319 319 319
320 320 315 315 317 320 318 316 316 314 315 315 316 316 318 317 317 317 317 316 315 314 313 316 319 315 315 314 314 316 315 319 319 321 317 317 318 316 318 319 322 321 320 319 316
318 316 314 315 316 317 320 317 316 315 315 316 316 317 317 316 317 317 317 317 316 316 314 315 316 317 315 316 317 316 316 316 316 318 319 317 315 318 317 317 317 317 319 318 317
316 316 314 315 316 310 315 314 314 316 314 316 316 316 316 316 316 317 318 317 315 314 316 314 316 318 317 316 313 314 315 316 320 317 318 319 318 316 316 315 313 313 313 313 313
313 314 313 314 316 315 314 314 313 314 314 316 316 315 315 317 318 318 317 314 314 314 314 315 317 318 318 315 314 317 315 315 315 316 319 322 319 316 314 313 314 314 314 313 313
311 313 309 312 310 313 314 314 314 311 311 312 314 313 315 316 315 316 315 315 313 313 316 315 317 316 316 313 314 314 314 314 315 320 314 315 313 313 314 315 314 313 312 311 311
307 308 306 311 312 309 310 311 312 313 311 311 312 312 313 313 313 313 315 314 312 313 312 315 313 313 311 312 312 312 313 313 314 314 317 314 312 314 314 314 313 311 310 310 310
306 307 306 307 307 309 308 311 311 311 312 312 313 311 312 313 313 313 313 313 312 312 313 311 311 313 313 313 313 313 313 313 312 311 313 314 314 312 310 310 310 311 310 310 310
302 304 306 306 308 310 310 310 310 309 310 310 311 312 313 313 311 311 310 310 310 311 311 312 314 313 312 313 310 308 309 312 312 313 314 313 311 310 311 310 308 309 309 309 309
Wind_Speed
11 13 12 11 9 6 6 5 4 3 1 2 2 2 2 3 3 3 4 6 8 2 2 4 3 3 4 3 2 5 1 4 4 6 3 2 3 4 3 1 4 5 6 4 4
11 12 12 11 10 7 5 4 2 2 2 4 3 3 4 4 5 4 4 3 6 4 4 5 5 6 6 4 2 4 4 6 3 3 3 1 1 2 2 3 1 1 2 2 2
11 12 12 12 10 8 6 3 0 2 3 5 6 8 4 4 6 4 4 5 6 4 4 5 6 5 4 4 2 4 3 4 3 5 3 4 5 3 3 5 6 5 6 5 4
11 11 12 12 11 7 4 4 3 5 8 10 9 6 4 4 3 6 10 9 6 4 5 6 5 4 4 4 3 4 4 5 3 5 5 4 3 4 8 5 4 5 7 7 6
11 10 11 11 10 7 5 5 6 9 12 12 8 4 4 7 8 9 8 8 9 8 9 8 5 3 4 3 3 3 1 2 1 6 9 4 8 5 8 5 9 11 8 9 10
11 9 10 9 9 7 6 6 10 14 13 9 5 5 8 11 8 7 7 8 7 11 13 11 5 5 5 2 0 0 4 6 2 3 3 4 5 3 2 3 4 4 7 8 8
11 8 8 8 10 9 9 12 15 14 10 7 6 7 8 5 5 5 6 7 5 6 8 8 7 4 3 3 1 1 4 1 6 5 2 4 5 5 1 8 7 7 6 5 4
9 6 8 9 11 13 14 15 14 11 8 8 7 6 4 6 4 5 4 2 4 3 3 3 4 5 2 2 3 1 1 5 3 7 1 4 2 3 6 12 12 10 10 10 9
8 6 7 9 10 10 11 11 8 6 6 5 5 7 4 2 3 2 3 2 2 3 2 1 0 3 2 3 2 2 2 2 2 4 4 3 4 2 13 11 13 13 13 13 15
7 5 8 8 8 7 7 5 5 5 5 5 7 4 3 2 3 3 3 2 3 2 2 1 3 1 2 3 3 4 3 2 2 3 6 4 8 10 8 8 10 12 13 11 9
7 5 8 8 7 6 3 3 3 2 5 3 2 2 3 1 1 1 5 1 4 4 2 3 2 1 1 1 1 3 2 1 2 1 9 5 10 10 6 6 8 10 8 4 3
8 6 7 9 7 8 5 5 5 2 4 4 2 1 2 1 2 3 6 3 3 4 1 2 4 4 2 4 2 2 2 4 2 3 6 8 15 5 4 4 6 5 9 9 10
8 8 7 7 6 5 7 7 4 3 1 3 2 2 1 1 2 5 6 4 4 4 4 2 4 3 2 4 2 1 1 1 4 5 2 9 5 1 3 4 5 6 7 9 11
7 8 8 8 4 4 4 5 2 3 2 3 2 2 1 0 4 5 6 2 3 3 2 3 3 4 3 2 1 2 2 1 6 8 7 4 5 4 4 3 3 4 6 7 10
8 5 3 2 3 3 3 3 1 2 2 1 2 1 1 2 1 5 5 4 4 3 2 3 3 4 4 2 1 2 2 3 4 5 4 1 5 1 2 8 6 5 6 8 9
10 7 4 3 3 6 4 2 2 1 3 2 3 3 1 4 3 2 3 5 3 3 4 4 2 3 3 3 4 2 2 2 2 1 4 1 3 3 5 9 10 10 9 8 8
10 9 7 7 6 3 4 4 1 3 2 5 3 4 4 5 3 5 4 6 4 2 6 3 3 1 5 1 2 3 4 4 3 2 2 2 5 9 6 7 12 14 12 10 8
5 8 7 7 6 3 1 2 5 1 3 2 3 6 5 7 5 6 2 2 7 4 2 3 3 4 6 3 3 3 2 2 5 4 7 2 7 2 2 7 7 9 13 11 9
1 5 14 7 5 4 2 4 2 1 1 3 1 4 3 4 3 3 4 2 4 5 2 3 1 2 1 2 4 2 3 3 4 1 5 5 4 10 4 5 3 7 12 11 7
1 3 14 8 6 2 4 3 1 1 1 2 3 3 3 6 3 3 2 4 2 3 2 2 4 2 2 1 4 3 4 2 1 4 6 6 8 9 5 7 6 9 11 12 11
1 2 13 9 4 5 3 2 1 5 2 3 2 3 3 3 3 3 3 4 6 4 7 2 1 1 3 2 10 2 3 1 2 3 4 7 7 2 7 8 11 15 12 13 16
3 2 13 8 4 3 2 2 5 3 7 4 4 3 2 2 2 2 1 3 5 4 3 2 1 4 10 8 5 6 5 5 4 3 3 3 12 8 14 5 20 26 28 30 31
3 4 11 3 3 2 2 2 7 5 5 3 3 3 1 2 1 0 1 6 8 5 3 2 2 5 4 3 1 1 2 3 1 1 11 12 14 5 14 27 25 22 25 26 27
3 2 9 13 7 3 2 3 2 8 5 5 3 3 2 1 2 1 1 1 9 4 2 4 3 9 9 12 7 12 13 15 13 4 18 21 29 26 21 20 15 18 24 28 30
7 4 3 3 6 6 2 2 2 3 6 9 3 4 2 1 2 2 1 4 5 7 3 1 5 6 12 13 14 16 19 19 17 18 16 27 23 23 22 16 18 23 23 26 31
5 3 3 2 2 1 5 2 2 2 4 3 3 2 1 3 4 2 1 2 4 3 2 2 4 3 10 13 10 13 17 17 20 21 19 19 23 13 24 23 27 27 31 37 35
10 6 2 3 1 1 2 1 2 1 3 3 1 1 3 1 4 8 9 8 12 7 3 2 2 1 4 4 12 14 8 4 6 6 8 14 19 20 18 21 27 36 35 37 37
Wind_Direction
2 1 360 358 354 325 305 302 289 309 270 225 194 214 201 182 177 185 183 196 197 197 212 224 206 200 170 196 165 141 125 218 228 196 156 46 23 17 41 34 53 98 78 75 58
357 358 360 1 0 2 347 319 273 245 223 173 163 149 133 110 104 102 141 156 167 148 143 156 153 152 131 135 119 82 229 215 243 234 113 57 264 309 271 344 312 201 49 26 32
358 356 359 358 355 346 349 342 241 173 159 141 137 127 107 99 103 65 87 128 133 135 142 140 142 141 92 116 115 141 199 213 215 232 263 296 257 211 219 262 232 255 293 298 285
1 357 358 2 4 3 28 60 100 128 128 127 124 118 89 84 93 101 106 102 89 111 131 123 120 104 120 147 131 204 194 200 235 272 264 239 225 217 211 258 279 258 275 268 267
4 2 3 10 18 40 53 72 108 123 126 127 122 93 88 91 103 99 88 86 75 92 122 98 101 112 128 128 136 201 275 199 310 263 243 253 234 239 233 269 273 268 283 293 285
7 11 13 23 34 44 66 93 114 122 120 108 80 74 108 95 102 86 72 79 82 86 81 75 73 89 107 106 176 115 282 306 358 277 265 255 254 211 62 331 313 291 288 303 284
11 24 29 39 47 59 88 109 114 110 98 80 73 98 107 100 111 92 89 76 85 93 81 71 54 47 129 124 29 297 295 305 12 354 48 222 231 229 25 10 339 330 346 311 294
17 45 54 63 72 79 99 107 105 96 72 60 78 97 87 119 70 78 75 97 71 103 71 66 31 77 89 130 53 113 212 232 31 15 83 233 192 175 2 335 313 313 306 296 290
22 72 83 92 82 84 99 97 87 62 40 59 79 101 114 98 77 62 35 54 132 118 77 312 85 83 106 161 171 47 225 208 193 46 333 314 285 129 349 336 313 310 304 297 281
27 103 112 112 88 84 95 63 28 24 21 56 72 108 93 69 88 82 35 353 131 140 152 143 68 100 112 205 224 165 161 141 307 7 331 284 272 319 345 335 319 316 310 308 308
32 117 132 130 89 73 65 18 345 32 41 45 19 79 56 98 153 347 356 67 119 97 96 26 155 64 38 186 134 118 109 358 265 335 324 297 285 312 325 323 346 353 350 29 14
45 105 142 142 107 84 82 86 56 20 337 33 64 26 72 70 21 23 0 117 95 85 103 146 67 341 212 153 131 75 13 335 265 290 310 318 301 314 356 8 352 29 79 88 93
57 91 116 149 129 100 83 59 38 339 30 360 45 20 38 65 47 30 39 82 87 65 40 70 10 81 142 124 122 89 279 233 294 312 226 308 266 211 109 69 72 74 90 95 98
68 95 106 110 126 125 65 28 30 16 81 359 28 43 137 34 59 40 36 65 69 61 109 79 8 60 88 112 208 309 188 278 306 322 314 356 291 235 200 150 115 107 104 105 110
57 95 105 44 92 52 338 336 207 312 95 356 26 71 100 60 123 40 39 42 63 47 334 42 27 27 66 28 303 56 6 353 323 292 300 205 251 128 193 215 186 165 147 135 126
50 58 47 358 332 327 309 199 164 192 89 24 4 9 65 24 48 41 59 62 89 82 41 23 313 25 22 63 46 88 249 58 96 211 251 8 268 270 207 228 201 195 184 165 150
47 41 35 26 354 15 111 144 148 68 321 5 351 355 89 16 50 21 50 38 31 11 22 353 46 22 24 126 124 10 334 305 254 226 325 164 263 264 265 263 232 204 193 185 180
36 29 26 15 19 24 112 97 73 34 32 0 3 52 70 3 44 24 74 74 44 48 84 22 165 16 356 33 346 6 317 299 294 285 307 171 248 275 328 304 245 230 207 202 204
141 50 21 7 357 340 150 60 91 132 327 359 87 58 40 24 33 71 49 52 29 11 42 352 297 340 60 337 315 79 266 13 277 248 267 253 270 269 308 253 206 206 207 210 206
272 269 359 8 1 79 81 104 74 258 84 61 79 17 48 8 32 34 58 4 79 38 333 130 291 35 323 220 82 334 129 247 219 278 271 249 273 254 353 348 292 264 246 227 218
57 142 1 358 11 55 83 86 25 29 89 50 102 88 66 19 5 20 48 53 8 34 53 57 257 200 296 302 312 285 234 117 296 243 270 294 262 153 323 359 0 346 317 293 288
53 71 358 3 42 36 75 0 349 342 44 81 90 93 97 54 30 42 76 56 24 24 29 34 209 268 290 294 296 254 266 231 210 217 234 288 260 275 281 25 332 322 320 314 307
40 24 14 28 84 54 17 57 44 29 34 49 89 46 50 81 95 77 65 167 28 3 359 180 229 302 284 149 157 86 134 101 36 289 256 265 271 218 293 317 325 323 326 328 332
19 47 30 52 63 64 45 20 79 32 59 49 91 80 82 84 37 306 330 285 327 342 349 185 234 244 258 289 301 279 271 265 259 249 275 262 281 291 307 315 310 313 316 317 311
40 65 25 14 34 54 50 7 35 20 17 33 82 68 92 117 306 263 265 318 325 1 81 19 273 263 273 278 270 269 269 266 260 258 257 280 287 298 308 315 300 306 308 312 309
62 32 36 54 353 59 7 40 47 29 3 18 84 42 162 211 210 284 279 264 272 41 36 347 265 303 285 278 284 267 266 268 272 276 274 278 281 307 314 307 306 314 310 306 302
39 32 62 358 50 152 59 17 41 310 103 72 76 171 222 215 291 283 276 266 268 281 265 234 235 279 278 335 311 282 275 248 273 288 287 284 295 315 311 316 311 312 307 302 302